DW9923 Weather Reports


Display with metric or nautical units.
time (UTC)temp
F
wind
direction
speed
MPH
gust
MPH
rain 1hr
in
rain 24hr
in
rain mn
in
humidity
%
barometer
mb
20260903201227 83 101 1.0 6.0 0.00 0.00 0.00 51
20260903200111 82 308 1.0 8.0 0.00 0.00 0.00 51
20260903195555 82 28 1.0 8.0 0.00 0.00 0.00 53
20260903195044 82 346 2.0 8.0 0.00 0.00 0.00 52
20260903194537 83 317 3.0 8.0 0.00 0.00 0.00 53
20260903194039 83 305 2.0 6.0 0.00 0.00 0.00 51
20260903193539 83 44 1.0 6.0 0.00 0.00 0.00 51
20260903193039 84 313 2.0 7.0 0.00 0.00 0.00 50
20260903192534 84 306 1.0 7.0 0.00 0.00 0.00 51
20260903192024 84 26 1.0 7.0 0.00 0.00 0.00 50
20260903191532 84 304 1.0 7.0 0.00 0.00 0.00 51
20260903191021 84 283 1.0 6.0 0.00 0.00 0.00 50
20260903190506 84 308 1.0 6.0 0.00 0.00 0.00 50
20260903185953 84 265 1.0 6.0 0.00 0.00 0.00 50
20260903185500 84 300 1.0 6.0 0.00 0.00 0.00 51
20260903184327 83 298 1.0 6.0 0.00 0.00 0.00 50
20260903183836 82 298 1.0 6.0 0.00 0.00 0.00 51
20260903183340 82 297 1.0 5.0 0.00 0.00 0.00 51
20260903182847 82 295 2.0 4.0 0.00 0.00 0.00 51
20260903182349 82 296 1.0 6.0 0.00 0.00 0.00 52
20260903180543 81 298 2.0 7.0 0.00 0.00 0.00 55
20260903180040 80 320 2.0 7.0 0.00 0.00 0.00 55
20260903175524 80 300 2.0 5.0 0.00 0.00 0.00 56
20260903175005 80 306 2.0 5.0 0.00 0.00 0.00 56
20260903174458 79 307 2.0 6.0 0.00 0.00 0.00 57
20260903173314 78 301 2.0 6.0 0.00 0.00 0.00 58
20260903172807 78 301 2.0 5.0 0.00 0.00 0.00 59
20260903172306 78 301 1.0 5.0 0.00 0.00 0.00 59
20260903171806 77 302 1.0 5.0 0.00 0.00 0.00 60
20260903171305 77 302 1.0 5.0 0.00 0.00 0.00 61
20260903170202 76 305 1.0 5.0 0.00 0.00 0.00 63
20260903165709 75 306 1.0 3.0 0.00 0.00 0.00 65
20260903165149 74 306 0.0 4.0 0.00 0.00 0.00 67
20260903164639 73 306 0.0 4.0 0.00 0.00 0.00 69
20260903164122 71 306 0.0 4.0 0.00 0.00 0.00 71
20260903163612 70 306 0.0 4.0 0.00 0.00 0.00 72
20260903163102 68 306 0.0 0.0 0.00 0.00 0.00 75
20260903161927 65 306 0.0 0.0 0.00 0.00 0.00 83
20260903161411 64 306 0.0 1.0 0.00 0.00 0.00 87
20260903160851 62 306 0.0 1.0 0.00 0.00 0.00 91
20260903160352 62 306 0.0 0.0 0.00 0.00 0.00 93
20260903155838 61 306 0.0 0.0 0.00 0.00 0.00 93
20260903155343 60 306 0.0 0.0 0.00 0.00 0.00 93
20260903154832 59 306 0.0 0.0 0.00 0.00 0.00 93
20260903153704 57 306 0.0 0.0 0.00 0.00 0.00 92
20260903153150 56 306 0.0 0.0 0.00 0.00 0.00 92
20260903152641 56 306 0.0 0.0 0.00 0.00 0.00 91
20260903152131 55 306 0.0 0.0 0.00 0.00 0.00 91
20260903151620 55 306 0.0 0.0 0.00 0.00 0.00 91
20260903151116 55 306 0.0 0.0 0.00 0.00 0.00 91
20260903150625 54 306 0.0 0.0 0.00 0.00 0.00 91
20260903150131 54 306 0.0 0.0 0.00 0.00 0.00 90
20260903145612 53 306 0.0 0.0 0.00 0.00 0.00 89
20260903145055 53 306 0.0 0.0 0.00 0.00 0.00 89
20260903143933 53 306 0.0 0.0 0.00 0.00 0.00 88
20260903143425 53 306 0.0 0.0 0.00 0.00 0.00 88
20260903142909 53 306 0.0 0.0 0.00 0.00 0.00 88
20260903142416 53 306 0.0 0.0 0.00 0.00 0.00 88
20260903141312 53 306 0.0 0.0 0.00 0.00 0.00 88
20260903140820 53 306 0.0 0.0 0.00 0.00 0.00 88
20260903140309 53 306 0.0 0.0 0.00 0.00 0.00 88
20260903135756 53 306 0.0 0.0 0.00 0.00 0.00 88
20260903134639 53 306 0.0 0.0 0.00 0.00 0.00 87
20260903134126 53 306 0.0 0.0 0.00 0.00 0.00 87
20260903133624 53 306 0.0 0.0 0.00 0.00 0.00 87
20260903133116 53 306 0.0 0.0 0.00 0.00 0.00 87
20260903132609 53 306 0.0 0.0 0.00 0.00 0.00 87
20260903131451 53 306 0.0 0.0 0.00 0.00 0.00 86
20260903130943 53 306 0.0 0.0 0.00 0.00 0.00 86
20260903130450 53 306 0.0 0.0 0.00 0.00 0.00 86
20260903125931 53 306 0.0 0.0 0.00 0.00 0.00 86
20260903125434 53 306 0.0 0.0 0.00 0.00 0.00 86
20260903124925 53 306 0.0 0.0 0.00 0.00 0.00 86
20260903124408 53 306 0.0 0.0 0.00 0.00 0.00 85
20260903123904 53 306 0.0 0.0 0.00 0.00 0.00 85
20260903123359 54 306 0.0 0.0 0.00 0.00 0.00 85
20260903122858 54 306 0.0 0.0 0.00 0.00 0.00 85
20260903122343 54 306 0.0 0.0 0.00 0.00 0.00 85
20260903121841 54 306 0.0 0.0 0.00 0.00 0.00 85
20260903121332 54 306 0.0 0.0 0.00 0.00 0.00 85
20260903120826 54 306 0.0 0.0 0.00 0.00 0.00 85
20260903115649 54 306 0.0 0.0 0.00 0.00 0.00 85
20260903115146 54 306 0.0 0.0 0.00 0.00 0.00 84
20260903114626 54 306 0.0 0.0 0.00 0.00 0.00 84
20260903114108 55 306 0.0 0.0 0.00 0.00 0.00 84
20260903111736 55 306 0.0 0.0 0.00 0.00 0.00 84
20260903111235 55 306 0.0 0.0 0.00 0.00 0.00 84
20260903110718 55 306 0.0 0.0 0.00 0.00 0.00 84
20260903110203 55 306 0.0 0.0 0.00 0.00 0.00 84
20260903105652 55 306 0.0 0.0 0.00 0.00 0.00 84
20260903105201 55 306 0.0 0.0 0.00 0.00 0.00 84
20260903104035 55 306 0.0 0.0 0.00 0.00 0.00 85
20260903103527 55 306 0.0 0.0 0.00 0.00 0.00 84
20260903102415 56 306 0.0 0.0 0.00 0.00 0.00 83
20260903101922 56 306 0.0 0.0 0.00 0.00 0.00 83
20260903101422 56 306 0.0 0.0 0.00 0.00 0.00 83
20260903100920 56 306 0.0 0.0 0.00 0.00 0.00 83
20260903100422 56 306 0.0 0.0 0.00 0.00 0.00 83
20260903095930 56 306 0.0 1.0 0.00 0.00 0.00 82
20260903095424 56 306 0.0 0.0 0.00 0.00 0.00 81
20260903094253 56 306 0.0 0.0 0.00 0.00 0.00 81
20260903093142 57 306 0.0 0.0 0.00 0.00 0.00 81
20260903092648 57 306 0.0 0.0 0.00 0.00 0.00 81
20260903092136 57 306 0.0 0.0 0.00 0.00 0.00 81
20260903091641 57 306 0.0 0.0 0.00 0.00 0.00 81
20260903090530 57 306 0.0 0.0 0.00 0.00 0.00 81
20260903090023 57 306 0.0 0.0 0.00 0.00 0.00 81
20260903085514 57 306 0.0 0.0 0.00 0.00 0.00 81
20260903085011 57 306 0.0 0.0 0.00 0.00 0.00 82
20260903084513 57 306 0.0 0.0 0.00 0.00 0.00 82
20260903084004 58 306 0.0 0.0 0.00 0.00 0.00 82
20260903082817 58 306 0.0 0.0 0.00 0.00 0.00 81
20260903082312 58 306 0.0 0.0 0.00 0.00 0.00 81
20260903080525 58 306 0.0 0.0 0.00 0.00 0.00 79
20260903080006 58 306 0.0 0.0 0.00 0.00 0.00 79
20260903074821 59 306 0.0 0.0 0.00 0.00 0.00 78
20260903074315 59 306 0.0 0.0 0.00 0.00 0.00 78
20260903073819 59 306 0.0 0.0 0.00 0.00 0.00 77
20260903073309 59 306 0.0 0.0 0.00 0.00 0.00 78
20260903072805 59 306 0.0 0.0 0.00 0.00 0.00 78
20260903072306 59 306 0.0 0.0 0.00 0.00 0.00 78
20260903071745 60 306 0.0 0.0 0.00 0.00 0.00 77
20260903071247 60 306 0.0 0.0 0.00 0.00 0.00 77
20260903070728 60 306 0.0 0.0 0.00 0.00 0.00 77
20260903070233 60 306 0.0 0.0 0.00 0.00 0.00 77
20260903065736 60 306 0.0 0.0 0.00 0.00 0.00 77
20260903064556 60 306 0.0 0.0 0.00 0.00 0.00 77
20260903064053 60 306 0.0 0.0 0.00 0.00 0.00 77
20260903063556 60 306 0.0 0.0 0.00 0.00 0.00 77
20260903063050 60 306 0.0 0.0 0.00 0.00 0.00 76
20260903062540 60 306 0.0 0.0 0.00 0.00 0.00 76
20260903062030 61 306 0.0 2.0 0.00 0.00 0.00 76
20260903061510 61 306 0.0 0.0 0.00 0.00 0.00 74
20260903060956 61 306 0.0 0.0 0.00 0.00 0.00 75
20260903060455 61 306 0.0 0.0 0.00 0.00 0.00 74
20260903055947 61 306 0.0 0.0 0.00 0.00 0.00 74
20260903055427 62 306 0.0 0.0 0.00 0.00 0.00 74
20260903054910 62 306 0.0 0.0 0.00 0.00 0.00 74
20260903054358 62 306 0.0 0.0 0.00 0.00 0.00 74
20260903053839 62 306 0.0 0.0 0.00 0.00 0.00 73
20260903053334 62 306 0.0 0.0 0.00 0.00 0.00 73
20260903052835 63 306 0.0 0.0 0.00 0.00 0.00 73
20260903051710 63 306 0.0 0.0 0.00 0.00 0.00 73
20260903051209 63 306 0.0 0.0 0.00 0.00 0.00 72
20260903050716 63 306 0.0 0.0 0.00 0.00 0.00 72
20260903050159 64 306 0.0 0.0 0.00 0.00 0.00 71
20260903045702 64 306 0.0 0.0 0.00 0.00 0.00 71
20260903045154 64 306 0.0 0.0 0.00 0.00 0.00 71
20260903044642 64 306 0.0 0.0 0.00 0.00 0.00 71
20260903044148 65 306 0.0 0.0 0.00 0.00 0.00 71
20260903043650 65 306 0.0 0.0 0.00 0.00 0.00 70
20260903042523 66 306 0.0 0.0 0.00 0.00 0.00 70
20260903042013 66 306 0.0 0.0 0.00 0.00 0.00 69
20260903041456 66 306 0.0 0.0 0.00 0.00 0.00 69
20260903040937 67 306 0.0 0.0 0.00 0.00 0.00 70
20260903040443 67 306 0.0 0.0 0.00 0.00 0.00 69
20260903035928 67 306 0.0 0.0 0.00 0.00 0.00 70
20260903035438 67 306 0.0 0.0 0.00 0.00 0.00 69
20260903034941 68 306 0.0 0.0 0.00 0.00 0.00 68
20260903034429 68 306 0.0 0.0 0.00 0.00 0.00 67
20260903033930 68 306 0.0 0.0 0.00 0.00 0.00 66
20260903033414 69 306 0.0 0.0 0.00 0.00 0.00 65
20260903032259 70 306 0.0 0.0 0.00 0.00 0.00 63
20260903031136 71 306 0.0 0.0 0.00 0.00 0.00 61
20260903030623 71 306 0.0 0.0 0.00 0.00 0.00 61
20260903030114 72 306 0.0 0.0 0.00 0.00 0.00 60
20260903025610 72 306 0.0 0.0 0.00 0.00 0.00 59
20260903025110 72 306 0.0 0.0 0.00 0.00 0.00 58
20260903024551 73 306 0.0 0.0 0.00 0.00 0.00 57
20260903024051 73 306 0.0 0.0 0.00 0.00 0.00 57
20260903023545 74 306 0.0 0.0 0.00 0.00 0.00 56
20260903022430 75 306 0.0 0.0 0.00 0.00 0.00 54
20260903021925 75 306 0.0 0.0 0.00 0.00 0.00 54
20260903021417 76 306 0.0 0.0 0.00 0.00 0.00 54
20260903020258 77 306 0.0 0.0 0.00 0.00 0.00 52
20260903015122 77 306 0.0 0.0 0.00 0.00 0.00 50
20260903014630 78 306 0.0 0.0 0.00 0.00 0.00 49
20260903014115 78 306 0.0 0.0 0.00 0.00 0.00 47
20260903012958 79 306 0.0 1.0 0.00 0.00 0.00 45
20260903012446 79 306 0.0 3.0 0.00 0.00 0.00 44
20260903011954 79 306 0.0 3.0 0.00 0.00 0.00 43
20260903011502 80 306 0.0 2.0 0.00 0.00 0.00 42
20260903011006 80 306 0.0 0.0 0.00 0.00 0.00 42
20260903010454 80 306 0.0 3.0 0.00 0.00 0.00 42
20260903005955 80 45 0.0 0.0 0.00 0.00 0.00 42
20260903004147 81 299 1.0 6.0 0.00 0.00 0.00 42
20260903003629 82 299 1.0 6.0 0.00 0.00 0.00 42
20260903003116 82 302 0.0 5.0 0.00 0.00 0.00 41
20260903002613 82 303 0.0 5.0 0.00 0.00 0.00 40
20260903002123 82 27 0.0 1.0 0.00 0.00 0.00 40
20260903001610 82 32 1.0 4.0 0.00 0.00 0.00 39
20260903000439 83 313 1.0 6.0 0.00 0.00 0.00 38
20260902235940 83 301 1.0 6.0 0.00 0.00 0.00 38
20260902234803 85 68 2.0 6.0 0.00 0.00 0.00 35
20260902234245 86 304 2.0 6.0 0.00 0.00 0.00 36
20260902233738 86 324 1.0 5.0 0.00 0.00 0.00 36
20260902233246 87 303 0.0 4.0 0.00 0.00 0.00 36
20260902232754 87 24 0.0 2.0 0.00 0.00 0.00 36
20260902232306 87 25 0.0 5.0 0.00 0.00 0.00 36
20260902231749 87 87 1.0 5.0 0.00 0.00 0.00 36
20260902231250 87 309 1.0 9.0 0.00 0.00 0.00 37
20260902230749 87 292 1.0 9.0 0.00 0.00 0.00 36
20260902230235 87 120 2.0 9.0 0.00 0.00 0.00 36
20260902225729 87 290 4.0 9.0 0.00 0.00 0.00 36
20260902225228 88 270 3.0 7.0 0.00 0.00 0.00 32
20260902224720 89 291 1.0 6.0 0.00 0.00 0.00 32
20260902224215 89 284 0.0 4.0 0.00 0.00 0.00 34
20260902223724 88 167 0.0 4.0 0.00 0.00 0.00 34
20260902223232 88 19 1.0 6.0 0.00 0.00 0.00 36
20260902222722 88 296 2.0 6.0 0.00 0.00 0.00 36
20260902222228 88 305 1.0 6.0 0.00 0.00 0.00 37
20260902221717 88 275 1.0 5.0 0.00 0.00 0.00 38
20260902221204 89 288 1.0 6.0 0.00 0.00 0.00 37
20260902220704 89 292 1.0 6.0 0.00 0.00 0.00 39
20260902220206 89 292 1.0 7.0 0.00 0.00 0.00 37
20260902215709 89 296 1.0 7.0 0.00 0.00 0.00 37
20260902215206 89 292 2.0 7.0 0.00 0.00 0.00 38
20260902214046 90 317 0.0 4.0 0.00 0.00 0.00 35
20260902213537 90 259 0.0 4.0 0.00 0.00 0.00 35
20260902213033 90 159 0.0 4.0 0.00 0.00 0.00 34
20260902212529 90 164 0.0 3.0 0.00 0.00 0.00 35
20260902212021 89 164 0.0 3.0 0.00 0.00 0.00 35
20260902211514 90 128 0.0 3.0 0.00 0.00 0.00 35
20260902210342 89 146 0.0 0.0 0.00 0.00 0.00 34
20260902205836 89 122 0.0 3.0 0.00 0.00 0.00 34
20260902205320 89 132 0.0 3.0 0.00 0.00 0.00 33
20260902204822 89 312 0.0 5.0 0.00 0.00 0.00 32
20260902204320 89 319 0.0 5.0 0.00 0.00 0.00 32
20260902203801 89 87 0.0 5.0 0.00 0.00 0.00 33